| time (UTC) | temp F | wind direction | speed MPH | gust MPH | rain 1hr in | rain 24hr in | rain mn in | humidity % | barometer mb |
| 20260510023031 | 50 | 313 | 0.0 | 3.0 | 0.00 | 0.00 | 0.00 | 85 | 1017.1 |
| 20260510022530 | 51 | 319 | 0.0 | 3.0 | 0.00 | 0.00 | 0.00 | 85 | 1017.1 |
| 20260510022034 | 51 | 308 | 1.0 | 3.0 | 0.00 | 0.00 | 0.00 | 85 | 1017.1 |
| 20260510021532 | 51 | 335 | 0.0 | 3.0 | 0.00 | 0.00 | 0.00 | 85 | 1017.1 |
| 20260510021028 | 51 | 328 | 0.0 | 3.0 | 0.00 | 0.00 | 0.00 | 85 | 1017.2 |
| 20260510020528 | 51 | 315 | 1.0 | 3.0 | 0.00 | 0.00 | 0.00 | 85 | 1017.2 |
| 20260510020029 | 51 | 320 | 0.0 | 3.0 | 0.00 | 0.00 | 0.00 | 84 | 1017.2 |
| 20260510015527 | 51 | 307 | 1.0 | 3.0 | 0.00 | 0.00 | 0.00 | 84 | 1017.1 |
| 20260510015031 | 51 | 333 | 0.0 | 3.0 | 0.00 | 0.00 | 0.00 | 84 | 1017.1 |
| 20260510014534 | 51 | 288 | 0.0 | 3.0 | 0.00 | 0.00 | 0.00 | 84 | 1017.1 |
| 20260510014028 | 51 | 326 | 0.0 | 3.0 | 0.00 | 0.00 | 0.00 | 84 | 1017.2 |
| 20260510013525 | 51 | 348 | 1.0 | 3.0 | 0.00 | 0.00 | 0.00 | 84 | 1017.3 |
| 20260510013025 | 51 | 315 | 0.0 | 2.0 | 0.00 | 0.00 | 0.00 | 84 | 1017.3 |
| 20260510012525 | 51 | 46 | 0.0 | 2.0 | 0.00 | 0.00 | 0.00 | 84 | 1017.3 |
| 20260510012024 | 51 | 313 | 0.0 | 3.0 | 0.00 | 0.00 | 0.00 | 84 | 1017.3 |
| 20260510011524 | 51 | 292 | 0.0 | 3.0 | 0.00 | 0.00 | 0.00 | 84 | 1017.2 |
| 20260510011024 | 51 | 314 | 0.0 | 4.0 | 0.00 | 0.00 | 0.00 | 83 | 1017.3 |
| 20260510010523 | 51 | 321 | 0.0 | 4.0 | 0.00 | 0.00 | 0.00 | 83 | 1017.3 |
| 20260510010026 | 51 | 312 | 0.0 | 3.0 | 0.00 | 0.00 | 0.00 | 83 | 1017.3 |
| 20260510005522 | 51 | 292 | 1.0 | 3.0 | 0.00 | 0.00 | 0.00 | 83 | 1017.4 |
| 20260510005023 | 52 | 302 | 0.0 | 3.0 | 0.00 | 0.00 | 0.00 | 83 | 1017.4 |
| 20260510004521 | 52 | 25 | 0.0 | 2.0 | 0.00 | 0.00 | 0.00 | 82 | 1017.4 |
| 20260510004020 | 52 | 280 | 0.0 | 2.0 | 0.00 | 0.00 | 0.00 | 82 | 1017.4 |
| 20260510003520 | 52 | 324 | 0.0 | 2.0 | 0.00 | 0.00 | 0.00 | 82 | 1017.5 |
| 20260510003019 | 52 | 299 | 0.0 | 4.0 | 0.00 | 0.00 | 0.00 | 81 | 1017.5 |
| 20260510002520 | 52 | 42 | 1.0 | 4.0 | 0.00 | 0.00 | 0.00 | 81 | 1017.5 |
| 20260510002022 | 52 | 298 | 0.0 | 3.0 | 0.00 | 0.00 | 0.00 | 81 | 1017.4 |
| 20260510001518 | 52 | 324 | 1.0 | 2.0 | 0.00 | 0.00 | 0.00 | 81 | 1017.5 |
| 20260510001017 | 53 | 319 | 1.0 | 2.0 | 0.00 | 0.00 | 0.00 | 81 | 1017.4 |
| 20260510000516 | 53 | 327 | 0.0 | 2.0 | 0.00 | 0.00 | 0.00 | 80 | 1017.5 |
| 20260510000018 | 53 | 325 | 0.0 | 3.0 | 0.00 | 0.00 | 0.00 | 80 | 1017.5 |
| 20260509235514 | 53 | 296 | 1.0 | 3.0 | 0.00 | 0.00 | 0.00 | 80 | 1017.6 |
| 20260509235015 | 53 | 5 | 0.0 | 3.0 | 0.00 | 0.00 | 0.00 | 80 | 1017.7 |
| 20260509234520 | 53 | 285 | 1.0 | 3.0 | 0.00 | 0.00 | 0.00 | 80 | 1017.7 |
| 20260509234016 | 53 | 330 | 0.0 | 3.0 | 0.00 | 0.00 | 0.00 | 79 | 1017.7 |
| 20260509233513 | 53 | 342 | 0.0 | 4.0 | 0.00 | 0.00 | 0.00 | 79 | 1017.7 |
| 20260509233012 | 53 | 328 | 1.0 | 4.0 | 0.00 | 0.00 | 0.00 | 79 | 1017.7 |
| 20260509232511 | 53 | 306 | 0.0 | 2.0 | 0.00 | 0.00 | 0.00 | 78 | 1017.8 |
| 20260509232011 | 54 | 336 | 0.0 | 2.0 | 0.00 | 0.00 | 0.00 | 78 | 1017.8 |
| 20260509231513 | 54 | 315 | 0.0 | 3.0 | 0.00 | 0.00 | 0.00 | 78 | 1017.8 |
| 20260509231009 | 54 | 305 | 0.0 | 3.0 | 0.00 | 0.00 | 0.00 | 78 | 1017.8 |
| 20260509230509 | 54 | 317 | 0.0 | 3.0 | 0.00 | 0.00 | 0.00 | 78 | 1017.8 |
| 20260509230017 | 54 | 300 | 1.0 | 3.0 | 0.00 | 0.00 | 0.00 | 77 | 1017.7 |
| 20260509225509 | 54 | 343 | 0.0 | 3.0 | 0.00 | 0.00 | 0.00 | 77 | 1017.7 |
| 20260509225009 | 54 | 294 | 0.0 | 3.0 | 0.00 | 0.00 | 0.00 | 77 | 1017.8 |
| 20260509224507 | 54 | 350 | 0.0 | 3.0 | 0.00 | 0.00 | 0.00 | 77 | 1017.7 |
| 20260509224006 | 54 | 323 | 1.0 | 3.0 | 0.00 | 0.00 | 0.00 | 76 | 1017.8 |
| 20260509223506 | 54 | 339 | 1.0 | 4.0 | 0.00 | 0.00 | 0.00 | 76 | 1017.8 |
| 20260509223008 | 54 | 298 | 0.0 | 4.0 | 0.00 | 0.00 | 0.00 | 76 | 1017.8 |
| 20260509222505 | 55 | 5 | 1.0 | 4.0 | 0.00 | 0.00 | 0.00 | 76 | 1017.8 |
| 20260509222004 | 55 | 25 | 1.0 | 5.0 | 0.00 | 0.00 | 0.00 | 76 | 1017.9 |
| 20260509221505 | 55 | 9 | 1.0 | 6.0 | 0.00 | 0.00 | 0.00 | 75 | 1017.8 |
| 20260509221004 | 55 | 17 | 2.0 | 6.0 | 0.00 | 0.00 | 0.00 | 75 | 1017.8 |
| 20260509220503 | 55 | 15 | 0.0 | 4.0 | 0.00 | 0.00 | 0.00 | 75 | 1017.8 |
| 20260509220002 | 55 | 49 | 1.0 | 4.0 | 0.00 | 0.00 | 0.00 | 75 | 1017.8 |
| 20260509215502 | 55 | 65 | 1.0 | 6.0 | 0.00 | 0.00 | 0.00 | 75 | 1017.8 |
| 20260509215001 | 55 | 340 | 1.0 | 4.0 | 0.00 | 0.00 | 0.00 | 75 | 1017.9 |
| 20260509214502 | 55 | 34 | 1.0 | 3.0 | 0.00 | 0.00 | 0.00 | 75 | 1017.8 |
| 20260509214101 | 55 | 292 | 1.0 | 3.0 | 0.00 | 0.00 | 0.00 | 75 | 1017.8 |
| 20260509213601 | 55 | 5 | 0.0 | 4.0 | 0.00 | 0.00 | 0.00 | 75 | 1018.0 |
| 20260509213002 | 56 | 33 | 1.0 | 4.0 | 0.00 | 0.00 | 0.00 | 75 | 1018.0 |
| 20260509212600 | 56 | 350 | 1.0 | 4.0 | 0.00 | 0.00 | 0.00 | 75 | 1018.0 |
| 20260509212100 | 56 | 5 | 1.0 | 4.0 | 0.00 | 0.00 | 0.00 | 74 | 1018.0 |
| 20260509211606 | 56 | 304 | 1.0 | 3.0 | 0.00 | 0.00 | 0.00 | 74 | 1018.1 |
| 20260509211059 | 56 | 350 | 1.0 | 4.0 | 0.00 | 0.00 | 0.00 | 74 | 1018.0 |
| 20260509210659 | 56 | 331 | 1.0 | 5.0 | 0.00 | 0.00 | 0.00 | 74 | 1018.0 |
| 20260509205559 | 56 | 265 | 0.0 | 5.0 | 0.00 | 0.00 | 0.00 | 73 | 1018.0 |
| 20260509205058 | 57 | 360 | 1.0 | 5.0 | 0.00 | 0.00 | 0.00 | 73 | 1017.8 |
| 20260509204558 | 57 | 281 | 1.0 | 5.0 | 0.00 | 0.00 | 0.00 | 73 | 1017.8 |
| 20260509204058 | 57 | 62 | 1.0 | 5.0 | 0.00 | 0.00 | 0.00 | 73 | 1017.8 |
| 20260509203557 | 57 | 54 | 1.0 | 4.0 | 0.00 | 0.00 | 0.00 | 72 | 1017.9 |
| 20260509203111 | 57 | 355 | 1.0 | 4.0 | 0.00 | 0.00 | 0.00 | 72 | 1018.0 |
| 20260509202558 | 57 | 24 | 1.0 | 4.0 | 0.00 | 0.00 | 0.00 | 72 | 1018.1 |
| 20260509202100 | 57 | 300 | 1.0 | 10.0 | 0.00 | 0.00 | 0.00 | 71 | 1018.0 |
| 20260509201604 | 57 | 84 | 1.0 | 10.0 | 0.00 | 0.00 | 0.00 | 70 | 1017.9 |
| 20260509201058 | 58 | 28 | 1.0 | 5.0 | 0.00 | 0.00 | 0.00 | 70 | 1017.9 |
| 20260509200556 | 58 | 50 | 1.0 | 5.0 | 0.00 | 0.00 | 0.00 | 68 | 1017.9 |
| 20260509200108 | 58 | 11 | 1.0 | 4.0 | 0.00 | 0.00 | 0.00 | 67 | 1017.9 |
| 20260509195557 | 58 | 18 | 0.0 | 3.0 | 0.00 | 0.00 | 0.00 | 66 | 1017.9 |
| 20260509195056 | 58 | 322 | 0.0 | 4.0 | 0.00 | 0.00 | 0.00 | 65 | 1017.9 |
| 20260509194556 | 59 | 309 | 0.0 | 3.0 | 0.00 | 0.00 | 0.00 | 64 | 1017.8 |
| 20260509194056 | 59 | 299 | 1.0 | 6.0 | 0.00 | 0.00 | 0.00 | 64 | 1017.8 |
| 20260509193556 | 59 | 37 | 2.0 | 6.0 | 0.00 | 0.00 | 0.00 | 63 | 1017.7 |
| 20260509193113 | 59 | 296 | 0.0 | 3.0 | 0.00 | 0.00 | 0.00 | 63 | 1017.7 |
| 20260509192555 | 59 | 13 | 0.0 | 5.0 | 0.00 | 0.00 | 0.00 | 63 | 1017.7 |
| 20260509192055 | 59 | 325 | 1.0 | 5.0 | 0.00 | 0.00 | 0.00 | 62 | 1017.6 |
| 20260509191555 | 60 | 17 | 1.0 | 3.0 | 0.00 | 0.00 | 0.00 | 61 | 1017.5 |
| 20260509191054 | 60 | 318 | 0.0 | 3.0 | 0.00 | 0.00 | 0.00 | 60 | 1017.5 |
| 20260509190554 | 60 | 304 | 1.0 | 3.0 | 0.00 | 0.00 | 0.00 | 59 | 1017.5 |
| 20260509190056 | 60 | 46 | 0.0 | 3.0 | 0.00 | 0.00 | 0.00 | 57 | 1017.4 |
| 20260509185554 | 60 | 309 | 1.0 | 5.0 | 0.00 | 0.00 | 0.00 | 56 | 1017.3 |
| 20260509185054 | 61 | 317 | 1.0 | 3.0 | 0.00 | 0.00 | 0.00 | 55 | 1017.4 |
| 20260509184607 | 61 | 306 | 0.0 | 7.0 | 0.00 | 0.00 | 0.00 | 54 | 1017.4 |
| 20260509184054 | 61 | 323 | 1.0 | 7.0 | 0.00 | 0.00 | 0.00 | 54 | 1017.4 |
| 20260509183653 | 61 | 304 | 1.0 | 5.0 | 0.00 | 0.00 | 0.00 | 53 | 1017.3 |
| 20260509183053 | 61 | 47 | 1.0 | 4.0 | 0.00 | 0.00 | 0.00 | 53 | 1017.3 |
| 20260509182552 | 61 | 272 | 1.0 | 4.0 | 0.00 | 0.00 | 0.00 | 53 | 1017.3 |
| 20260509182052 | 62 | 63 | 1.0 | 4.0 | 0.00 | 0.00 | 0.00 | 53 | 1017.2 |
| 20260509181553 | 62 | 20 | 0.0 | 3.0 | 0.00 | 0.00 | 0.00 | 54 | 1017.2 |
| 20260509181051 | 62 | 290 | 0.0 | 3.0 | 0.00 | 0.00 | 0.00 | 53 | 1017.3 |
| 20260509180554 | 62 | 67 | 1.0 | 4.0 | 0.00 | 0.00 | 0.00 | 53 | 1017.4 |
| 20260509180050 | 62 | 51 | 1.0 | 4.0 | 0.00 | 0.00 | 0.00 | 52 | 1017.3 |
| 20260509175550 | 62 | 56 | 1.0 | 3.0 | 0.00 | 0.00 | 0.00 | 51 | 1017.2 |
| 20260509175050 | 63 | 319 | 1.0 | 5.0 | 0.00 | 0.00 | 0.00 | 51 | 1017.2 |
| 20260509174552 | 63 | 314 | 1.0 | 5.0 | 0.00 | 0.00 | 0.00 | 51 | 1017.4 |
| 20260509174050 | 63 | 346 | 0.0 | 4.0 | 0.00 | 0.00 | 0.00 | 51 | 1017.4 |
| 20260509173650 | 63 | 344 | 1.0 | 4.0 | 0.00 | 0.00 | 0.00 | 51 | 1017.4 |
| 20260509173104 | 63 | 306 | 1.0 | 4.0 | 0.00 | 0.00 | 0.00 | 52 | 1017.5 |
| 20260509172550 | 63 | 355 | 0.0 | 5.0 | 0.00 | 0.00 | 0.00 | 51 | 1017.5 |
| 20260509172050 | 63 | 292 | 1.0 | 5.0 | 0.00 | 0.00 | 0.00 | 51 | 1017.5 |
| 20260509171612 | 63 | 53 | 1.0 | 4.0 | 0.00 | 0.00 | 0.00 | 51 | 1017.5 |
| 20260509171048 | 63 | 321 | 0.0 | 4.0 | 0.00 | 0.00 | 0.00 | 50 | 1017.5 |
| 20260509170549 | 63 | 42 | 0.0 | 4.0 | 0.00 | 0.00 | 0.00 | 50 | 1017.4 |
| 20260509170048 | 63 | 5 | 1.0 | 5.0 | 0.00 | 0.00 | 0.00 | 51 | 1017.4 |
| 20260509165549 | 63 | 44 | 0.0 | 5.0 | 0.00 | 0.00 | 0.00 | 51 | 1017.4 |
| 20260509165047 | 64 | 360 | 1.0 | 6.0 | 0.00 | 0.00 | 0.00 | 50 | 1017.4 |
| 20260509164547 | 64 | 42 | 1.0 | 6.0 | 0.00 | 0.00 | 0.00 | 50 | 1017.3 |
| 20260509164050 | 64 | 52 | 2.0 | 8.0 | 0.00 | 0.00 | 0.00 | 50 | 1017.3 |
| 20260509163547 | 64 | 350 | 1.0 | 8.0 | 0.00 | 0.00 | 0.00 | 50 | 1017.3 |
| 20260509163053 | 64 | 302 | 1.0 | 5.0 | 0.00 | 0.00 | 0.00 | 51 | 1017.3 |
| 20260509162547 | 64 | 54 | 0.0 | 5.0 | 0.00 | 0.00 | 0.00 | 49 | 1017.4 |
| 20260509162047 | 64 | 65 | 1.0 | 6.0 | 0.00 | 0.00 | 0.00 | 49 | 1017.4 |
| 20260509161550 | 65 | 119 | 2.0 | 6.0 | 0.00 | 0.00 | 0.00 | 49 | 1017.4 |
| 20260509161046 | 65 | 17 | 2.0 | 6.0 | 0.00 | 0.00 | 0.00 | 49 | 1017.3 |
| 20260509160546 | 66 | 255 | 1.0 | 4.0 | 0.00 | 0.00 | 0.00 | 49 | 1017.2 |
| 20260509160048 | 66 | 24 | 1.0 | 3.0 | 0.00 | 0.00 | 0.00 | 48 | 1017.3 |
| 20260509155545 | 66 | 350 | 1.0 | 3.0 | 0.00 | 0.00 | 0.00 | 48 | 1017.3 |
| 20260509155045 | 65 | 304 | 0.0 | 6.0 | 0.00 | 0.00 | 0.00 | 49 | 1017.3 |
| 20260509154549 | 65 | 80 | 1.0 | 6.0 | 0.00 | 0.00 | 0.00 | 48 | 1017.3 |
| 20260509154043 | 65 | 71 | 1.0 | 4.0 | 0.00 | 0.00 | 0.00 | 48 | 1017.2 |
| 20260509153544 | 66 | 103 | 1.0 | 7.0 | 0.00 | 0.00 | 0.00 | 46 | 1017.4 |
| 20260509153043 | 67 | 340 | 2.0 | 7.0 | 0.00 | 0.00 | 0.00 | 46 | 1017.4 |
| 20260509152548 | 67 | 71 | 0.0 | 3.0 | 0.00 | 0.00 | 0.00 | 45 | 1017.4 |
| 20260509152043 | 66 | 306 | 0.0 | 4.0 | 0.00 | 0.00 | 0.00 | 45 | 1017.5 |
| 20260509151541 | 67 | 69 | 2.0 | 9.0 | 0.00 | 0.00 | 0.00 | 46 | 1017.5 |
| 20260509151041 | 67 | 267 | 1.0 | 9.0 | 0.00 | 0.00 | 0.00 | 46 | 1017.6 |
| 20260509150539 | 67 | 178 | 1.0 | 8.0 | 0.00 | 0.00 | 0.00 | 49 | 1017.5 |
| 20260509150050 | 66 | 58 | 1.0 | 8.0 | 0.00 | 0.00 | 0.00 | 49 | 1017.5 |
| 20260509145539 | 66 | 88 | 1.0 | 9.0 | 0.00 | 0.00 | 0.00 | 48 | 1017.5 |
| 20260509145039 | 66 | 310 | 1.0 | 9.0 | 0.00 | 0.00 | 0.00 | 46 | 1017.6 |
| 20260509144613 | 66 | 59 | 2.0 | 5.0 | 0.00 | 0.00 | 0.00 | 46 | 1017.6 |
| 20260509144040 | 66 | 295 | 2.0 | 5.0 | 0.00 | 0.00 | 0.00 | 46 | 1017.7 |
| 20260509143536 | 66 | 74 | 2.0 | 6.0 | 0.00 | 0.00 | 0.00 | 47 | 1017.7 |
| 20260509143044 | 66 | 57 | 1.0 | 4.0 | 0.00 | 0.00 | 0.00 | 47 | 1017.7 |
| 20260509142536 | 65 | 72 | 2.0 | 5.0 | 0.00 | 0.00 | 0.00 | 47 | 1017.8 |
| 20260509142035 | 65 | 340 | 1.0 | 6.0 | 0.00 | 0.00 | 0.00 | 48 | 1017.9 |
| 20260509141540 | 65 | 317 | 2.0 | 6.0 | 0.00 | 0.00 | 0.00 | 48 | 1017.9 |
| 20260509141031 | 64 | 58 | 1.0 | 6.0 | 0.00 | 0.00 | 0.00 | 50 | 1018.1 |
| 20260509140532 | 64 | 286 | 1.0 | 5.0 | 0.00 | 0.00 | 0.00 | 50 | 1018.2 |
| 20260509140030 | 64 | 296 | 1.0 | 4.0 | 0.00 | 0.00 | 0.00 | 50 | 1018.3 |
| 20260509135532 | 64 | 310 | 1.0 | 3.0 | 0.00 | 0.00 | 0.00 | 49 | 1018.4 |
| 20260509135029 | 64 | 320 | 1.0 | 7.0 | 0.00 | 0.00 | 0.00 | 48 | 1018.4 |
| 20260509134530 | 64 | 24 | 1.0 | 7.0 | 0.00 | 0.00 | 0.00 | 49 | 1018.4 |
| 20260509134030 | 64 | 301 | 2.0 | 5.0 | 0.00 | 0.00 | 0.00 | 48 | 1018.4 |
| 20260509133531 | 64 | 299 | 1.0 | 5.0 | 0.00 | 0.00 | 0.00 | 51 | 1018.4 |
| 20260509133028 | 64 | 54 | 2.0 | 5.0 | 0.00 | 0.00 | 0.00 | 49 | 1018.4 |
| 20260509132528 | 64 | 13 | 0.0 | 9.0 | 0.00 | 0.00 | 0.00 | 48 | 1018.5 |
| 20260509132028 | 65 | 305 | 2.0 | 9.0 | 0.00 | 0.00 | 0.00 | 47 | 1018.5 |
| 20260509131537 | 65 | 84 | 2.0 | 6.0 | 0.00 | 0.00 | 0.00 | 48 | 1018.4 |
| 20260509131027 | 65 | 23 | 2.0 | 7.0 | 0.00 | 0.00 | 0.00 | 48 | 1018.5 |
| 20260509130526 | 65 | 53 | 2.0 | 5.0 | 0.00 | 0.00 | 0.00 | 48 | 1018.5 |
| 20260509130026 | 65 | 77 | 2.0 | 6.0 | 0.00 | 0.00 | 0.00 | 47 | 1018.6 |
| 20260509125525 | 64 | 296 | 2.0 | 6.0 | 0.00 | 0.00 | 0.00 | 49 | 1018.6 |
| 20260509125025 | 64 | 327 | 2.0 | 6.0 | 0.00 | 0.00 | 0.00 | 49 | 1018.6 |
| 20260509124523 | 65 | 66 | 1.0 | 6.0 | 0.00 | 0.00 | 0.00 | 51 | 1018.7 |
| 20260509124023 | 65 | 273 | 2.0 | 9.0 | 0.00 | 0.00 | 0.00 | 49 | 1018.7 |
| 20260509123523 | 65 | 336 | 2.0 | 6.0 | 0.00 | 0.00 | 0.00 | 50 | 1018.8 |
| 20260509123022 | 64 | 299 | 0.0 | 5.0 | 0.00 | 0.00 | 0.00 | 52 | 1018.9 |
| 20260509122521 | 63 | 267 | 1.0 | 13.0 | 0.00 | 0.00 | 0.00 | 52 | 1018.9 |
| 20260509122024 | 63 | 88 | 4.0 | 13.0 | 0.00 | 0.00 | 0.00 | 51 | 1019.0 |
| 20260509121525 | 63 | 321 | 2.0 | 8.0 | 0.00 | 0.00 | 0.00 | 49 | 1019.0 |
| 20260509121019 | 64 | 298 | 2.0 | 6.0 | 0.00 | 0.00 | 0.00 | 49 | 1019.1 |
| 20260509120518 | 64 | 74 | 2.0 | 7.0 | 0.00 | 0.00 | 0.00 | 51 | 1019.1 |
| 20260509120019 | 64 | 304 | 2.0 | 8.0 | 0.00 | 0.00 | 0.00 | 50 | 1019.1 |
| 20260509115517 | 65 | 68 | 3.0 | 8.0 | 0.00 | 0.00 | 0.00 | 49 | 1019.1 |
| 20260509115018 | 65 | 273 | 2.0 | 6.0 | 0.00 | 0.00 | 0.00 | 50 | 1019.1 |
| 20260509114517 | 65 | 82 | 2.0 | 8.0 | 0.00 | 0.00 | 0.00 | 50 | 1019.1 |
| 20260509114016 | 65 | 273 | 3.0 | 8.0 | 0.00 | 0.00 | 0.00 | 49 | 1019.2 |
| 20260509113515 | 65 | 40 | 1.0 | 6.0 | 0.00 | 0.00 | 0.00 | 51 | 1019.2 |
| 20260509113015 | 65 | 267 | 2.0 | 7.0 | 0.00 | 0.00 | 0.00 | 48 | 1019.3 |
| 20260509112513 | 65 | 260 | 1.0 | 8.0 | 0.00 | 0.00 | 0.00 | 50 | 1019.3 |
| 20260509112012 | 65 | 63 | 2.0 | 8.0 | 0.00 | 0.00 | 0.00 | 50 | 1019.4 |
| 20260509111512 | 65 | 107 | 3.0 | 6.0 | 0.00 | 0.00 | 0.00 | 52 | 1019.4 |
| 20260509111011 | 65 | 34 | 1.0 | 6.0 | 0.00 | 0.00 | 0.00 | 52 | 1019.5 |
| 20260509110510 | 65 | 47 | 2.0 | 6.0 | 0.00 | 0.00 | 0.00 | 51 | 1019.5 |
| 20260509110011 | 65 | 5 | 2.0 | 7.0 | 0.00 | 0.00 | 0.00 | 53 | 1019.5 |
| 20260509105509 | 64 | 72 | 3.0 | 8.0 | 0.00 | 0.00 | 0.00 | 53 | 1019.5 |
| 20260509105012 | 64 | 85 | 2.0 | 9.0 | 0.00 | 0.00 | 0.00 | 52 | 1019.5 |
| 20260509104527 | 64 | 299 | 2.0 | 9.0 | 0.00 | 0.00 | 0.00 | 51 | 1019.5 |
| 20260509104011 | 64 | 101 | 1.0 | 5.0 | 0.00 | 0.00 | 0.00 | 53 | 1019.5 |
| 20260509103507 | 63 | 57 | 1.0 | 5.0 | 0.00 | 0.00 | 0.00 | 53 | 1019.6 |
| 20260509103007 | 63 | 43 | 2.0 | 6.0 | 0.00 | 0.00 | 0.00 | 54 | 1019.7 |
| 20260509102506 | 63 | 309 | 2.0 | 6.0 | 0.00 | 0.00 | 0.00 | 53 | 1019.7 |
| 20260509102008 | 64 | 27 | 2.0 | 6.0 | 0.00 | 0.00 | 0.00 | 52 | 1019.7 |
| 20260509101504 | 64 | 340 | 2.0 | 4.0 | 0.00 | 0.00 | 0.00 | 52 | 1019.7 |
| 20260509101005 | 65 | 52 | 1.0 | 5.0 | 0.00 | 0.00 | 0.00 | 52 | 1019.8 |
| 20260509100502 | 64 | 115 | 0.0 | 4.0 | 0.00 | 0.00 | 0.00 | 53 | 1019.7 |
| 20260509100002 | 64 | 157 | 0.0 | 4.0 | 0.00 | 0.00 | 0.00 | 52 | 1019.8 |
| 20260509095502 | 63 | 355 | 1.0 | 5.0 | 0.00 | 0.00 | 0.00 | 53 | 1019.8 |
| 20260509095101 | 64 | 338 | 1.0 | 5.0 | 0.00 | 0.00 | 0.00 | 53 | 1019.8 |
| 20260509094600 | 63 | 114 | 1.0 | 7.0 | 0.00 | 0.00 | 0.00 | 53 | 1019.8 |
| 20260509094058 | 63 | 56 | 1.0 | 7.0 | 0.00 | 0.00 | 0.00 | 53 | 1019.8 |
| 20260509093558 | 63 | 306 | 1.0 | 4.0 | 0.00 | 0.00 | 0.00 | 54 | 1019.8 |
| 20260509093057 | 63 | 15 | 1.0 | 5.0 | 0.00 | 0.00 | 0.00 | 52 | 1019.9 |
| 20260509092554 | 64 | 61 | 2.0 | 5.0 | 0.00 | 0.00 | 0.00 | 53 | 1019.9 |
| 20260509092056 | 64 | 35 | 1.0 | 4.0 | 0.00 | 0.00 | 0.00 | 56 | 1019.9 |
| 20260509091554 | 64 | 117 | 0.0 | 8.0 | 0.00 | 0.00 | 0.00 | 56 | 1019.9 |
| 20260509091056 | 63 | 348 | 1.0 | 8.0 | 0.00 | 0.00 | 0.00 | 57 | 1020.0 |
| 20260509090551 | 63 | 9 | 1.0 | 3.0 | 0.00 | 0.00 | 0.00 | 59 | 1019.9 |
| 20260509090053 | 62 | 18 | 1.0 | 5.0 | 0.00 | 0.00 | 0.00 | 58 | 1019.9 |
| 20260509085549 | 62 | 320 | 2.0 | 6.0 | 0.00 | 0.00 | 0.00 | 58 | 1019.9 |
| 20260509085048 | 63 | 260 | 1.0 | 5.0 | 0.00 | 0.00 | 0.00 | 59 | 1019.9 |
| 20260509084553 | 62 | 89 | 1.0 | 5.0 | 0.00 | 0.00 | 0.00 | 61 | 1020.0 |
| 20260509084046 | 62 | 53 | 1.0 | 4.0 | 0.00 | 0.00 | 0.00 | 60 | 1020.0 |
| 20260509083546 | 62 | 303 | 1.0 | 4.0 | 0.00 | 0.00 | 0.00 | 61 | 1019.9 |
| 20260509083044 | 62 | 71 | 1.0 | 5.0 | 0.00 | 0.00 | 0.00 | 63 | 1019.8 |
| 20260509082542 | 62 | 89 | 0.0 | 5.0 | 0.00 | 0.00 | 0.00 | 65 | 1019.8 |
| 20260509082042 | 61 | 93 | 0.0 | 4.0 | 0.00 | 0.00 | 0.00 | 64 | 1019.8 |
| 20260509081545 | 61 | 135 | 1.0 | 5.0 | 0.00 | 0.00 | 0.00 | 64 | 1019.9 |
| 20260509081041 | 61 | 104 | 2.0 | 5.0 | 0.00 | 0.00 | 0.00 | 66 | 1019.9 |
| 20260509080537 | 61 | 120 | 0.0 | 4.0 | 0.00 | 0.00 | 0.00 | 67 | 1019.9 |
| 20260509080040 | 61 | 120 | 0.0 | 3.0 | 0.00 | 0.00 | 0.00 | 68 | 1020.0 |
| 20260509075534 | 60 | 28 | 0.0 | 4.0 | 0.00 | 0.00 | 0.00 | 68 | 1020.0 |
| 20260509075034 | 60 | 107 | 1.0 | 4.0 | 0.00 | 0.00 | 0.00 | 69 | 1020.1 |
| 20260509074536 | 60 | 114 | 0.0 | 4.0 | 0.00 | 0.00 | 0.00 | 70 | 1020.1 |
| 20260509074031 | 59 | 55 | 1.0 | 4.0 | 0.00 | 0.00 | 0.00 | 70 | 1020.1 |
| 20260509073530 | 59 | 105 | 0.0 | 4.0 | 0.00 | 0.00 | 0.00 | 71 | 1020.1 |
| 20260509073028 | 58 | 39 | 0.0 | 6.0 | 0.00 | 0.00 | 0.00 | 72 | 1020.2 |
| 20260509072532 | 58 | 30 | 1.0 | 6.0 | 0.00 | 0.00 | 0.00 | 74 | 1020.2 |
| 20260509072025 | 57 | 355 | 0.0 | 4.0 | 0.00 | 0.00 | 0.00 | 75 | 1020.3 |
| 20260509071524 | 56 | 65 | 1.0 | 4.0 | 0.00 | 0.00 | 0.00 | 76 | 1020.3 |
| 20260509071022 | 56 | 38 | 1.0 | 5.0 | 0.00 | 0.00 | 0.00 | 77 | 1020.3 |
| 20260509070521 | 56 | 55 | 2.0 | 5.0 | 0.00 | 0.00 | 0.00 | 77 | 1020.3 |
| 20260509070020 | 55 | 48 | 1.0 | 3.0 | 0.00 | 0.00 | 0.00 | 79 | 1020.3 |
| 20260509065525 | 55 | 40 | 0.0 | 3.0 | 0.00 | 0.00 | 0.00 | 80 | 1020.3 |
| 20260509065019 | 54 | 111 | 0.0 | 3.0 | 0.00 | 0.00 | 0.00 | 80 | 1020.2 |
| 20260509064519 | 54 | 73 | 0.0 | 3.0 | 0.00 | 0.00 | 0.00 | 81 | 1020.2 |
| 20260509064021 | 54 | 45 | 0.0 | 2.0 | 0.00 | 0.00 | 0.00 | 82 | 1020.2 |
| 20260509063518 | 53 | 38 | 0.0 | 3.0 | 0.00 | 0.00 | 0.00 | 82 | 1020.3 |
| 20260509063018 | 53 | 299 | 0.0 | 3.0 | 0.00 | 0.00 | 0.00 | 83 | 1020.3 |
| 20260509062519 | 53 | 15 | 1.0 | 3.0 | 0.00 | 0.00 | 0.00 | 85 | 1020.3 |
| 20260509062017 | 52 | 28 | 1.0 | 3.0 | 0.00 | 0.00 | 0.00 | 85 | 1020.3 |
| 20260509061516 | 52 | 46 | 0.0 | 3.0 | 0.00 | 0.00 | 0.00 | 86 | 1020.3 |
| 20260509061021 | 52 | 101 | 0.0 | 3.0 | 0.00 | 0.00 | 0.00 | 87 | 1020.3 |
| 20260509060520 | 51 | 70 | 0.0 | 3.0 | 0.00 | 0.00 | 0.00 | 88 | 1020.3 |
| 20260509060016 | 51 | 133 | 0.0 | 4.0 | 0.00 | 0.00 | 0.00 | 88 | 1020.3 |
| 20260509055515 | 50 | 65 | 0.0 | 2.0 | 0.00 | 0.00 | 0.00 | 89 | 1020.3 |
| 20260509055019 | 50 | 39 | 0.0 | 2.0 | 0.00 | 0.00 | 0.00 | 90 | 1020.3 |
| 20260509054520 | 50 | 113 | 0.0 | 4.0 | 0.00 | 0.00 | 0.00 | 90 | 1020.2 |
| 20260509054013 | 49 | 113 | 1.0 | 4.0 | 0.00 | 0.00 | 0.00 | 90 | 1020.2 |
| 20260509053512 | 49 | 22 | 0.0 | 2.0 | 0.00 | 0.00 | 0.00 | 90 | 1020.1 |
| 20260509053012 | 49 | 21 | 0.0 | 2.0 | 0.00 | 0.00 | 0.00 | 90 | 1020.1 |
| 20260509052513 | 48 | 63 | 0.0 | 0.0 | 0.00 | 0.00 | 0.00 | 90 | 1020.1 |
| 20260509052016 | 48 | 90 | 0.0 | 1.0 | 0.00 | 0.00 | 0.00 | 90 | 1020.1 |
| 20260509051510 | 48 | 90 | 0.0 | 1.0 | 0.00 | 0.00 | 0.00 | 90 | 1020.1 |
| 20260509051012 | 48 | 17 | 0.0 | 0.0 | 0.00 | 0.00 | 0.00 | 90 | 1020.0 |
| 20260509050509 | 48 | 17 | 0.0 | 0.0 | 0.00 | 0.00 | 0.00 | 90 | 1020.0 |
| 20260509050009 | 48 | 17 | 0.0 | 0.0 | 0.00 | 0.00 | 0.00 | 90 | 1020.0 |
| 20260509045508 | 47 | 17 | 0.0 | 0.0 | 0.00 | 0.00 | 0.00 | 90 | 1019.9 |
| 20260509045007 | 47 | 17 | 0.0 | 0.0 | 0.00 | 0.00 | 0.00 | 90 | 1019.9 |
| 20260509044512 | 47 | 17 | 0.0 | 0.0 | 0.00 | 0.00 | 0.00 | 89 | 1019.9 |
| 20260509044007 | 47 | 17 | 0.0 | 0.0 | 0.00 | 0.00 | 0.00 | 89 | 1019.8 |
| 20260509043510 | 47 | 17 | 0.0 | 0.0 | 0.00 | 0.00 | 0.00 | 89 | 1019.7 |
| 20260509043009 | 47 | 17 | 0.0 | 0.0 | 0.00 | 0.00 | 0.00 | 89 | 1019.7 |
| 20260509042505 | 47 | 17 | 0.0 | 0.0 | 0.00 | 0.00 | 0.00 | 89 | 1019.7 |
| 20260509042004 | 47 | 17 | 0.0 | 0.0 | 0.00 | 0.00 | 0.00 | 89 | 1019.7 |
| 20260509041504 | 47 | 17 | 0.0 | 0.0 | 0.00 | 0.00 | 0.00 | 88 | 1019.7 |
| 20260509041004 | 47 | 17 | 0.0 | 0.0 | 0.00 | 0.00 | 0.00 | 89 | 1019.6 |
| 20260509040502 | 47 | 17 | 0.0 | 0.0 | 0.00 | 0.00 | 0.00 | 89 | 1019.6 |
| 20260509040001 | 47 | 17 | 0.0 | 0.0 | 0.00 | 0.00 | 0.00 | 88 | 1019.6 |
| 20260509035503 | 47 | 17 | 0.0 | 0.0 | 0.00 | 0.00 | 0.00 | 88 | 1019.7 |
| 20260509035001 | 47 | 17 | 0.0 | 0.0 | 0.00 | 0.00 | 0.00 | 88 | 1019.7 |
| 20260509034606 | 47 | 17 | 0.0 | 0.0 | 0.00 | 0.00 | 0.00 | 88 | 1019.6 |
| 20260509034100 | 47 | 17 | 0.0 | 0.0 | 0.00 | 0.00 | 0.00 | 88 | 1019.7 |
| 20260509033600 | 47 | 17 | 0.0 | 0.0 | 0.00 | 0.00 | 0.00 | 88 | 1019.7 |
| 20260509033100 | 47 | 17 | 0.0 | 0.0 | 0.00 | 0.00 | 0.00 | 88 | 1019.7 |
| 20260509032600 | 47 | 17 | 0.0 | 0.0 | 0.00 | 0.00 | 0.00 | 87 | 1019.7 |
| 20260509032058 | 48 | 17 | 0.0 | 0.0 | 0.00 | 0.00 | 0.00 | 87 | 1019.7 |
| 20260509031603 | 48 | 17 | 0.0 | 0.0 | 0.00 | 0.00 | 0.00 | 87 | 1019.7 |
| 20260509031058 | 48 | 17 | 0.0 | 0.0 | 0.00 | 0.00 | 0.00 | 87 | 1019.7 |
| 20260509030557 | 48 | 17 | 0.0 | 0.0 | 0.00 | 0.00 | 0.00 | 87 | 1019.8 |
| 20260509030057 | 48 | 17 | 0.0 | 0.0 | 0.00 | 0.00 | 0.00 | 87 | 1019.8 |
| 20260509025556 | 48 | 17 | 0.0 | 0.0 | 0.00 | 0.00 | 0.00 | 86 | 1019.8 |
| 20260509025058 | 48 | 17 | 0.0 | 0.0 | 0.00 | 0.00 | 0.00 | 86 | 1019.8 |
| 20260509024555 | 48 | 17 | 0.0 | 0.0 | 0.00 | 0.00 | 0.00 | 86 | 1019.8 |
| 20260509024057 | 48 | 17 | 0.0 | 0.0 | 0.00 | 0.00 | 0.00 | 86 | 1019.8 |
| 20260509023554 | 48 | 17 | 0.0 | 0.0 | 0.00 | 0.00 | 0.00 | 86 | 1019.7 |